GW5597 Weather Reports


time (UTC)temp
C
wind
direction
speed
KPH
gust
KPH
rain 1hr
cm
rain 24hr
cm
rain mn
cm
humidity
%
barometer
mb
20260503203310 29 329 3.2 6.4 0.00 0.00 0.00 39 1009.5
20260503202807 29 312 3.2 6.4 0.00 0.00 0.00 41 1009.5
20260503202307 29 303 3.2 6.4 0.00 0.00 0.00 41 1009.5
20260503201806 28 309 3.2 6.4 0.00 0.00 0.00 39 1009.6
20260503201307 28 337 3.2 6.4 0.00 0.00 0.00 40 1009.7
20260503201056 28 303 3.2 8.0 0.00 0.00 0.00 42 1009.7
20260503200306 28 312 4.8 8.0 0.00 0.00 0.00 44 1009.8
20260503200028 28 321 3.2 6.4 0.00 0.00 0.00 42 1009.9
20260503195307 28 316 3.2 6.4 0.00 0.00 0.00 43 1009.9
20260503194807 27 343 3.2 6.4 0.00 0.00 0.00 44 1010.0
20260503194307 27 300 3.2 6.4 0.00 0.00 0.00 45 1010.1
20260503193806 27 344 3.2 6.4 0.00 0.00 0.00 46 1010.1
20260503193304 26 291 3.2 6.4 0.00 0.00 0.00 46 1010.2
20260503192804 26 333 3.2 6.4 0.00 0.00 0.00 46 1010.2
20260503192305 26 339 3.2 8.0 0.00 0.00 0.00 46 1010.3
20260503191804 26 11 3.2 8.0 0.00 0.00 0.00 47 1010.4
20260503191536 26 314 3.2 8.0 0.00 0.00 0.00 48 1010.4
20260503190804 26 332 3.2 8.0 0.00 0.00 0.00 48 1010.5
20260503190304 25 325 3.2 8.0 0.00 0.00 0.00 49 1010.6
20260503185805 25 326 3.2 6.4 0.00 0.00 0.00 50 1010.6
20260503185305 25 328 3.2 6.4 0.00 0.00 0.00 51 1010.7
20260503184804 24 356 3.2 6.4 0.00 0.00 0.00 52 1010.8
20260503184304 24 118 3.2 6.4 0.00 0.00 0.00 53 1010.8
20260503183805 23 347 3.2 8.0 0.00 0.00 0.00 53 1010.9
20260503183305 23 340 3.2 8.0 0.00 0.00 0.00 54 1010.9
20260503182804 23 341 3.2 6.4 0.00 0.00 0.00 55 1010.9
20260503182305 23 330 3.2 6.4 0.00 0.00 0.00 55 1011.0
20260503181803 23 303 4.8 6.4 0.00 0.00 0.00 55 1011.0
20260503181304 22 326 3.2 6.4 0.00 0.00 0.00 56 1011.1
20260503180804 22 320 3.2 6.4 0.00 0.00 0.00 57 1011.1
20260503180304 22 15 3.2 6.4 0.00 0.00 0.00 57 1011.2
20260503175804 22 336 3.2 6.4 0.00 0.00 0.00 60 1011.2
20260503175305 21 335 3.2 6.4 0.00 0.00 0.00 61 1011.3
20260503174804 21 316 3.2 6.4 0.00 0.00 0.00 61 1011.3
20260503174300 21 312 3.2 6.4 0.00 0.00 0.00 62 1011.3
20260503173757 21 342 3.2 6.4 0.00 0.00 0.00 63 1011.4
20260503173258 20 348 3.2 8.0 0.00 0.00 0.00 64 1011.5
20260503172758 20 320 3.2 8.0 0.00 0.00 0.00 65 1011.5
20260503172257 20 330 3.2 6.4 0.00 0.00 0.00 68 1011.5
20260503171758 20 18 3.2 6.4 0.00 0.00 0.00 68 1011.5
20260503171257 20 300 3.2 8.0 0.00 0.00 0.00 68 1011.5
20260503170757 19 338 3.2 8.0 0.00 0.00 0.00 69 1011.6
20260503170745 19 359 3.2 4.8 0.00 0.00 0.00 70 1011.6
20260503150754 16 65 3.2 4.8 0.00 0.00 0.00 86 1012.1
20260503150254 15 91 3.2 4.8 0.00 0.00 0.00 89 1012.1
20260503140240 12 16 1.6 3.2 0.00 0.00 0.00 100 1011.8
20260503130736 12 162 1.6 3.2 0.00 0.00 0.00 98 1011.5
20260503130235 12 115 1.6 3.2 0.00 0.00 0.00 98 1011.5
20260503110725 12 76 1.6 3.2 0.00 0.00 0.00 98 1011.8
20260503110225 12 76 1.6 3.2 0.00 0.00 0.00 97 1011.9
20260503090219 14 89 1.6 3.2 0.00 0.00 0.00 93 1012.1
20260503081216 14 155 1.6 3.2 0.00 0.03 0.00 91 1012.1
20260503080716 14 91 1.6 3.2 0.00 0.03 0.00 91 1012.0
20260503080216 14 78 1.6 3.2 0.00 0.03 0.00 91 1012.1
20260503072937 15 181 1.6 3.2 0.00 0.03 0.00 90 1012.2
20260503072214 15 97 1.6 3.2 0.00 0.03 0.00 90 1012.2
20260503071714 15 82 1.6 3.2 0.00 0.03 0.00 89 1012.2
20260503071215 15 41 1.6 3.2 0.00 0.03 0.00 90 1012.2
20260503070718 15 179 1.6 3.2 0.00 0.03 0.00 89 1012.2
20260503070214 15 105 1.6 3.2 0.00 0.03 0.00 89 1012.2
20260503060209 16 158 1.6 3.2 0.00 0.03 0.03 84 1012.3
20260503054709 16 107 1.6 3.2 0.00 0.03 0.03 84 1012.0
20260503054210 16 96 1.6 3.2 0.00 0.03 0.03 83 1011.9
20260503053710 16 158 1.6 3.2 0.00 0.03 0.03 83 1011.9
20260503053210 16 90 1.6 3.2 0.00 0.03 0.03 82 1012.0
20260503052710 16 74 1.6 3.2 0.00 0.03 0.03 82 1011.9
20260503052209 16 81 1.6 3.2 0.00 0.03 0.03 81 1011.9
20260503051710 17 72 1.6 4.8 0.00 0.03 0.03 81 1011.9
20260503051210 17 0 1.6 4.8 0.00 0.03 0.03 81 1011.9
20260503050708 17 70 1.6 4.8 0.00 0.03 0.03 81 1012.2
20260503050207 17 358 1.6 3.2 0.00 0.03 0.03 80 1012.1
20260503045707 17 0 0.0 3.2 0.00 0.03 0.03 80 1012.4
20260503045207 17 110 0.0 3.2 0.00 0.03 0.03 79 1012.4
20260503045152 17 353 1.6 3.2 0.00 0.03 0.03 79 1012.4
20260503044208 17 85 1.6 3.2 0.00 0.03 0.03 79 1012.4
20260503043708 17 77 1.6 3.2 0.00 0.03 0.03 79 1012.3
20260503043205 17 90 1.6 3.2 0.00 0.03 0.03 79 1012.3
20260503042705 17 111 1.6 3.2 0.00 0.03 0.03 81 1012.3
20260503042204 17 68 0.0 3.2 0.00 0.03 0.03 81 1012.2
20260503041719 17 0 1.6 3.2 0.00 0.03 0.03 79 1012.1
20260503041707 17 85 1.6 3.2 0.00 0.03 0.03 80 1012.2
20260503040705 17 66 0.0 3.2 0.00 0.03 0.03 79 1012.1
20260503040204 17 27 1.6 3.2 0.00 0.03 0.03 78 1012.1
20260503035703 17 88 1.6 3.2 0.00 0.03 0.03 77 1012.1
20260503035645 18 93 1.6 3.2 0.00 0.03 0.03 77 1012.1
20260503034704 18 80 1.6 3.2 0.00 0.03 0.03 76 1012.1
20260503034433 18 0 0.0 3.2 0.00 0.03 0.03 76 1012.1
20260503033701 18 60 1.6 3.2 0.00 0.03 0.03 75 1012.0
20260503033201 18 0 1.6 3.2 0.00 0.03 0.03 74 1011.9
20260503032701 18 82 1.6 3.2 0.00 0.03 0.03 74 1011.9
20260503032201 18 96 1.6 3.2 0.00 0.03 0.03 73 1011.8
20260503032139 18 55 0.0 3.2 0.00 0.03 0.03 73 1011.8
20260503031201 18 0 1.6 4.8 0.00 0.03 0.03 73 1011.8
20260503030700 18 191 1.6 4.8 0.00 0.03 0.03 72 1011.7
20260503030200 18 243 1.6 3.2 0.00 0.03 0.03 72 1011.8
20260503025701 18 81 1.6 4.8 0.00 0.03 0.03 72 1011.8
20260503025201 18 172 1.6 8.0 0.00 0.03 0.03 72 1011.8
20260503024700 18 242 3.2 8.0 0.00 0.03 0.03 72 1011.8
20260503024201 19 196 3.2 8.0 0.00 0.03 0.03 71 1011.8
20260503023657 19 232 3.2 8.0 0.00 0.03 0.03 70 1011.8
20260503023423 20 164 3.2 8.0 0.00 0.03 0.03 70 1011.8
20260503022655 20 180 3.2 8.0 0.00 0.03 0.03 68 1011.8
20260503022155 20 9 3.2 8.0 0.00 0.03 0.03 67 1011.7
20260503021655 21 206 3.2 9.7 0.00 0.03 0.03 65 1011.7
20260503021159 21 34 3.2 9.7 0.00 0.03 0.03 64 1011.8
20260503020654 21 183 3.2 9.7 0.00 0.03 0.03 63 1011.7
20260503020154 21 189 1.6 6.4 0.00 0.03 0.03 63 1011.3
20260503020132 22 0 1.6 6.4 0.00 0.03 0.03 63 1011.1
20260503015154 22 189 1.6 6.4 0.00 0.03 0.03 61 1011.1
20260503014653 22 252 1.6 4.8 0.00 0.03 0.03 59 1010.9
20260503014154 22 285 1.6 3.2 0.00 0.03 0.03 58 1010.9
20260503013654 22 295 0.0 3.2 0.00 0.03 0.03 58 1010.9
20260503013150 22 336 0.0 3.2 0.00 0.03 0.03 59 1010.9
20260503012907 22 298 0.0 3.2 0.00 0.03 0.03 60 1010.9
20260503012152 22 0 0.0 1.6 0.00 0.03 0.03 60 1010.9
20260503011649 22 0 0.0 3.2 0.00 0.03 0.03 61 1010.8
20260503011150 22 0 1.6 3.2 0.00 0.03 0.03 60 1010.8
20260503010647 22 322 1.6 4.8 0.00 0.03 0.03 59 1010.8
20260503010147 22 0 1.6 4.8 0.00 0.03 0.03 58 1010.8
20260503005648 22 338 3.2 6.4 0.00 0.03 0.03 57 1010.8
20260503005149 22 338 3.2 8.0 0.00 0.03 0.03 57 1010.9
20260503004648 22 355 3.2 8.0 0.00 0.03 0.03 57 1010.8
20260503004148 22 295 1.6 4.8 0.00 0.03 0.03 57 1010.9
20260503003647 22 299 1.6 4.8 0.00 0.03 0.03 57 1010.9
20260503003413 22 329 3.2 6.4 0.00 0.03 0.03 56 1010.9
20260503002645 22 305 3.2 6.4 0.00 0.03 0.03 57 1010.9
20260503002146 22 328 3.2 6.4 0.00 0.03 0.03 57 1010.9
20260503001645 22 307 3.2 6.4 0.00 0.03 0.03 57 1011.0
20260503001146 22 320 3.2 6.4 0.00 0.03 0.03 58 1011.0
20260503000645 22 38 3.2 4.8 0.00 0.03 0.03 58 1011.0
20260503000146 21 327 3.2 6.4 0.00 0.03 0.03 59 1011.0
20260502235645 21 28 3.2 6.4 0.00 0.03 0.03 59 1011.1
20260502235146 21 324 3.2 6.4 0.00 0.03 0.03 59 1011.1
20260502234646 21 359 3.2 6.4 0.00 0.03 0.03 60 1011.2
20260502234146 21 318 3.2 6.4 0.00 0.03 0.03 60 1011.2
20260502233645 21 19 3.2 6.4 0.00 0.03 0.03 59 1011.3
20260502233146 21 58 1.6 6.4 0.00 0.03 0.03 59 1011.4
20260502232645 21 330 1.6 4.8 0.00 0.03 0.03 61 1011.5
20260502232406 21 294 3.2 6.4 0.00 0.03 0.03 60 1011.5
20260502231143 21 314 1.6 6.4 0.00 0.03 0.03 60 1011.6
20260502230904 20 256 1.6 6.4 0.00 0.03 0.03 61 1011.6
20260502230405 20 339 1.6 6.4 0.00 0.03 0.03 60 1011.7
20260502225642 20 219 3.2 6.4 0.00 0.03 0.03 60 1011.8
20260502225142 20 330 3.2 6.4 0.00 0.03 0.03 61 1011.9
20260502224643 20 52 1.6 4.8 0.00 0.03 0.03 62 1012.0
20260502223404 20 317 3.2 6.4 0.00 0.03 0.03 62 1012.2
20260502222640 20 43 3.2 6.4 0.00 0.03 0.03 61 1012.3
20260502222140 20 329 3.2 6.4 0.00 0.03 0.03 61 1012.4
20260502221641 20 305 3.2 4.8 0.00 0.03 0.03 62 1012.5
20260502221141 20 31 1.6 4.8 0.00 0.03 0.03 62 1012.6
20260502220641 20 55 1.6 4.8 0.00 0.03 0.03 62 1012.6
20260502215641 20 320 1.6 6.4 0.00 0.03 0.03 62 1012.8
20260502215141 20 318 1.6 6.4 0.00 0.03 0.03 61 1012.8
20260502214642 20 339 1.6 6.4 0.00 0.03 0.03 61 1012.9
20260502214403 20 336 3.2 6.4 0.00 0.03 0.03 62 1012.9
20260502213903 20 347 3.2 6.4 0.00 0.03 0.03 62 1013.1
20260502213135 20 332 3.2 6.4 0.00 0.03 0.03 61 1013.1
20260502212636 19 61 3.2 6.4 0.00 0.03 0.03 62 1013.2
20260502212136 19 305 3.2 6.4 0.00 0.03 0.03 64 1013.3
20260502211858 18 15 1.6 6.4 0.00 0.03 0.03 65 1013.4
20260502211137 18 346 3.2 12.9 0.00 0.03 0.03 64 1013.4
20260502210636 18 129 3.2 12.9 0.00 0.03 0.03 64 1013.4
20260502210137 18 35 3.2 6.4 0.00 0.03 0.03 65 1013.5
20260502205637 18 316 3.2 6.4 0.00 0.03 0.03 66 1013.7
20260502205404 18 51 1.6 4.8 0.00 0.03 0.03 65 1013.8
20260502204859 18 355 1.6 4.8 0.00 0.03 0.03 66 1014.0
20260502204134 17 169 1.6 4.8 0.00 0.03 0.03 68 1014.0